• In Uzbekistan
  • List of Countries
  • For 7 days
  • Water Temperature
  • Satellite Maps
  • Weather Map
  • Weather Widgets
  • user-avatar
    Login

    Hourly Weather Germersheim

    Today, 24 November, Friday

    Time Temperature Precipitation Wind Pressure Humidity
    00:00 +11°C° 0 mm 4 mps 751 mmHg 77%
    01:00 +11°C° 0 mm 3 mps 751 mmHg 78%
    02:00 +11°C° 0 mm 3 mps 750 mmHg 78%
    03:00 +10°C° 0 mm 3 mps 750 mmHg 79%
    04:00 +10°C° 0 mm 3 mps 750 mmHg 80%
    05:00 +10°C° 0 mm 3 mps 750 mmHg 79%
    06:00 +10°C° 0 mm 4 mps 749 mmHg 78%
    07:00 +10°C° 0 mm 4 mps 749 mmHg 76%
    08:00 +11°C° 0.1 mm 4 mps 749 mmHg 74%
    09:00 +11°C° 0.1 mm 4 mps 749 mmHg 72%
    10:00 +12°C° 0.1 mm 5 mps 749 mmHg 70%
    11:00 +13°C° 0.1 mm 5 mps 749 mmHg 70%
    12:00 +14°C° 0.1 mm 5 mps 749 mmHg 69%
    13:00 +14°C° 0.1 mm 5 mps 749 mmHg 69%
    14:00 +14°C° 0.1 mm 5 mps 749 mmHg 72%
    15:00 +13°C° 0.1 mm 4 mps 749 mmHg 76%
    16:00 +13°C° 0.1 mm 4 mps 749 mmHg 79%
    17:00 +12°C° 0.2 mm 3 mps 749 mmHg 82%
    18:00 +12°C° 0.2 mm 3 mps 750 mmHg 85%
    19:00 +11°C° 0.2 mm 3 mps 750 mmHg 88%
    20:00 +12°C° 0.4 mm 2 mps 750 mmHg 89%
    21:00 +12°C° 0.4 mm 2 mps 749 mmHg 91%
    22:00 +12°C° 0.4 mm 2 mps 749 mmHg 92%
    23:00 +10°C° 1.2 mm 2 mps 749 mmHg 92%

    Tomorrow, 25 November, Saturday

    Time Temperature Precipitation Wind Pressure Humidity
    00:00 +10°C° 1.2 mm 2 mps 748 mmHg 93%
    01:00 +11°C° 1.2 mm 1 mps 748 mmHg 93%
    02:00 +10°C° 1.7 mm 2 mps 747 mmHg 93%
    03:00 +10°C° 1.7 mm 2 mps 746 mmHg 93%
    04:00 +10°C° 1.7 mm 2 mps 746 mmHg 93%
    05:00 +9°C° 1.4 mm 2 mps 745 mmHg 93%
    06:00 +9°C° 1.4 mm 2 mps 745 mmHg 92%
    07:00 +8°C° 1.4 mm 2 mps 745 mmHg 92%
    08:00 +8°C° 0.9 mm 3 mps 746 mmHg 91%
    09:00 +8°C° 0.9 mm 3 mps 746 mmHg 90%
    10:00 +8°C° 0.9 mm 3 mps 747 mmHg 88%
    11:00 +7°C° 0.2 mm 4 mps 748 mmHg 86%
    12:00 +7°C° 0.2 mm 4 mps 748 mmHg 83%
    13:00 +7°C° 0.2 mm 4 mps 749 mmHg 80%
    14:00 +6°C° 0.1 mm 4 mps 750 mmHg 79%
    15:00 +7°C° 0.1 mm 3 mps 750 mmHg 78%
    16:00 +7°C° 0.1 mm 3 mps 750 mmHg 76%
    17:00 +6°C° 0.1 mm 2 mps 751 mmHg 77%
    18:00 +6°C° 0.1 mm 2 mps 752 mmHg 78%
    19:00 +5°C° 0.1 mm 2 mps 753 mmHg 79%
    20:00 +5°C° 0.1 mm 2 mps 753 mmHg 80%
    21:00 +5°C° 0.1 mm 2 mps 754 mmHg 81%
    22:00 +4°C° 0.1 mm 2 mps 755 mmHg 82%
    23:00 +4°C° 0.2 mm 2 mps 755 mmHg 82%

    Day after tomorrow, 26 November, Sunday

    Time Temperature Precipitation Wind Pressure Humidity
    00:00 +4°C° 0.2 mm 2 mps 756 mmHg 81%
    01:00 +3°C° 0.2 mm 3 mps 756 mmHg 81%
    02:00 +2°C° 0.1 mm 3 mps 757 mmHg 82%
    03:00 +2°C° 0.1 mm 3 mps 757 mmHg 83%
    04:00 +1°C° 0.1 mm 3 mps 757 mmHg 85%
    05:00 +1°C° 0 mm 3 mps 758 mmHg 85%
    06:00 0°C° 0 mm 3 mps 758 mmHg 86%
    07:00 0°C° 0 mm 3 mps 759 mmHg 87%
    08:00 +1°C° 0 mm 3 mps 759 mmHg 85%
    09:00 0°C° 0 mm 4 mps 760 mmHg 83%
    10:00 0°C° 0 mm 4 mps 760 mmHg 82%
    11:00 +1°C° 0 mm 4 mps 760 mmHg 78%
    12:00 +3°C° 0 mm 4 mps 760 mmHg 74%
    13:00 +3°C° 0 mm 5 mps 760 mmHg 71%
    14:00 +3°C° 0 mm 4 mps 760 mmHg 72%
    15:00 +3°C° 0 mm 4 mps 760 mmHg 73%
    16:00 +3°C° 0 mm 3 mps 760 mmHg 74%
    17:00 +2°C° 0 mm 3 mps 760 mmHg 77%
    18:00 +2°C° 0 mm 3 mps 760 mmHg 80%
    19:00 +1°C° 0 mm 3 mps 760 mmHg 82%
    20:00 +1°C° 0 mm 3 mps 761 mmHg 84%
    21:00 +1°C° 0 mm 3 mps 761 mmHg 85%
    22:00 +1°C° 0 mm 3 mps 761 mmHg 86%
    23:00 +1°C° 0 mm 3 mps 761 mmHg 87%

    27 November, Monday

    Time Temperature Precipitation Wind Pressure Humidity
    00:00 0°C° 0 mm 3 mps 761 mmHg 88%
    01:00 0°C° 0 mm 3 mps 761 mmHg 89%
    02:00 0°C° 0 mm 3 mps 761 mmHg 89%
    03:00 0°C° 0 mm 3 mps 761 mmHg 90%
    04:00 0°C° 0 mm 3 mps 760 mmHg 90%
    05:00 0°C° 0 mm 3 mps 760 mmHg 90%
    06:00 0°C° 0 mm 3 mps 760 mmHg 90%
    07:00 0°C° 0 mm 3 mps 760 mmHg 89%
    08:00 0°C° 0 mm 3 mps 760 mmHg 87%
    09:00 +1°C° 0 mm 3 mps 760 mmHg 84%
    10:00 +2°C° 0 mm 3 mps 760 mmHg 82%
    11:00 +1°C° 0 mm 4 mps 760 mmHg 79%
    12:00 +3°C° 0 mm 4 mps 759 mmHg 77%
    13:00 +4°C° 0 mm 4 mps 759 mmHg 74%
    14:00 +4°C° 0.1 mm 4 mps 758 mmHg 76%
    15:00 +4°C° 0.1 mm 4 mps 758 mmHg 77%
    16:00 +3°C° 0.1 mm 4 mps 757 mmHg 78%
    17:00 +3°C° 0 mm 4 mps 757 mmHg 79%
    18:00 +1°C° 0 mm 4 mps 757 mmHg 81%
    19:00 +1°C° 0 mm 4 mps 756 mmHg 82%
    20:00 +1°C° 0 mm 4 mps 756 mmHg 80%
    21:00 +1°C° 0 mm 4 mps 756 mmHg 79%
    22:00 +1°C° 0 mm 4 mps 756 mmHg 77%
    23:00 +3°C° 0.1 mm 4 mps 755 mmHg 76%

    28 November, Tuesday

    Time Temperature Precipitation Wind Pressure Humidity
    00:00 +3°C° 0.1 mm 4 mps 755 mmHg 76%
    01:00 +3°C° 0.1 mm 4 mps 754 mmHg 75%
    02:00 +3°C° 0.3 mm 4 mps 754 mmHg 76%
    03:00 +2°C° 0.3 mm 5 mps 753 mmHg 77%
    04:00 +2°C° 0.3 mm 5 mps 752 mmHg 78%
    05:00 +2°C° 0.4 mm 5 mps 752 mmHg 79%
    06:00 +2°C° 0.4 mm 5 mps 752 mmHg 81%
    07:00 +2°C° 0.4 mm 5 mps 751 mmHg 83%
    08:00 +2°C° 0.1 mm 5 mps 751 mmHg 82%
    09:00 +2°C° 0.1 mm 5 mps 751 mmHg 82%
    10:00 +3°C° 0.1 mm 5 mps 750 mmHg 81%
    11:00 +3°C° 0.1 mm 5 mps 750 mmHg 81%
    12:00 +3°C° 0.1 mm 5 mps 749 mmHg 81%
    13:00 +5°C° 0.1 mm 5 mps 749 mmHg 80%
    14:00 +5°C° 0.2 mm 5 mps 748 mmHg 81%
    15:00 +4°C° 0.2 mm 4 mps 748 mmHg 82%
    16:00 +4°C° 0.2 mm 4 mps 747 mmHg 83%
    17:00 +4°C° 0.1 mm 4 mps 747 mmHg 84%
    18:00 +4°C° 0.1 mm 4 mps 747 mmHg 84%
    19:00 +4°C° 0.1 mm 4 mps 746 mmHg 84%
    20:00 +4°C° 0.2 mm 4 mps 746 mmHg 84%
    21:00 +4°C° 0.2 mm 4 mps 746 mmHg 84%
    22:00 +4°C° 0.2 mm 4 mps 746 mmHg 85%
    23:00 +4°C° 0.2 mm 4 mps 745 mmHg 85%

    29 November, Wednesday

    Time Temperature Precipitation Wind Pressure Humidity
    00:00 +4°C° 0.2 mm 4 mps 745 mmHg 85%
    01:00 +4°C° 0.2 mm 4 mps 745 mmHg 86%
    02:00 +4°C° 0.2 mm 3 mps 745 mmHg 86%
    03:00 +4°C° 0.2 mm 3 mps 745 mmHg 86%
    04:00 +4°C° 0.2 mm 3 mps 744 mmHg 86%
    05:00 +3°C° 0.2 mm 3 mps 744 mmHg 86%
    06:00 +3°C° 0.2 mm 3 mps 744 mmHg 86%
    07:00 +3°C° 0.2 mm 3 mps 744 mmHg 86%
    08:00 +3°C° 0.1 mm 3 mps 744 mmHg 85%
    09:00 +4°C° 0.1 mm 3 mps 744 mmHg 85%
    10:00 +4°C° 0.1 mm 3 mps 745 mmHg 84%
    11:00 +4°C° 0.1 mm 3 mps 744 mmHg 82%
    12:00 +4°C° 0.1 mm 3 mps 744 mmHg 80%
    13:00 +5°C° 0.1 mm 3 mps 744 mmHg 78%
    14:00 +4°C° 0.1 mm 3 mps 744 mmHg 79%
    15:00 +4°C° 0.1 mm 3 mps 744 mmHg 80%
    16:00 +5°C° 0.1 mm 2 mps 743 mmHg 82%
    17:00 +4°C° 0.1 mm 3 mps 744 mmHg 83%
    18:00 +3°C° 0.1 mm 3 mps 744 mmHg 84%
    19:00 +3°C° 0.1 mm 3 mps 744 mmHg 85%
    20:00 +2°C° 0 mm 3 mps 744 mmHg 85%
    21:00 +2°C° 0 mm 3 mps 744 mmHg 86%
    22:00 +2°C° 0 mm 3 mps 744 mmHg 87%
    23:00 +1°C° 0 mm 3 mps 744 mmHg 88%
    Show more